Regional Weather Roundup
Issued by NWS Midland/Odessa, TX

Skip options and go directly to product.
Home | Oldest Version | Previous Version | Current Version | All | Text Only | Save Text | Print | Product List | Glossary On

Skip product version selection by date and time.   
729
ASUS44 KMAF 212110
RWRMAF
MIDLAND AREA WEATHER ROUNDUP
NATIONAL WEATHER SERVICE MIDLAND TX
400 PM CDT TUE OCT 21 2014

...IN SOUTHWEST TEXAS AND SOUTHEAST NEW MEXICO...

CITY           SKY/WX    TMP DP  RH WIND       PRES   REMARKS
ALPINE         CLOUDY    64  56  75 E6        30.13F
ANDREWS        CLOUDY    71  55  57 S9        30.06F
ARTESIA        NOT AVBL
BIG SPRING     CLOUDY    77  53  42 SE7       30.06F
CARLSBAD       PTSUNNY   69  60  73 E10       30.03F
DRYDEN           N/A     70  64  81 SE8       30.01F
FORT STOCKTON  CLOUDY    68  60  75 SE13      30.05S
GUAD PASS      PTSUNNY   64  53  67 E14       30.12F
HOBBS          PTSUNNY   64  63  94 S8        30.08F
MARFA          CLOUDY    57  57 100 NE8       30.11F
MIDLAND AIRPK  CLOUDY    74  55  51 S6        30.05F
MIDLAND INTL   CLOUDY    73  55  53 S10       30.05S
ODESSA         CLOUDY    71  56  58 S12       30.06F
PECOS          CLOUDY    71  62  71 E15       30.02S
PRESIDIO       CLOUDY    70  63  78 NE6       30.01S
SEMINOLE       CLOUDY    70  55  59 SE7       30.08S
SNYDER         MOSUNNY   76  52  42 SE5       30.05F
WINK           CLOUDY    69  62  78 SE14      30.03F
$$
...OTHER STATIONS IN TEXAS...

CITY           SKY/WX    TMP DP  RH WIND       PRES   REMARKS
ABILENE        SUNNY     80  48  32 S13       30.03F
AMARILLO       MOSUNNY   76  49  38 S17G25    30.06F
AUSTIN         MOSUNNY   82  49  31 E10       29.99F
BROWNSVILLE    CLOUDY    82  70  66 NE8       29.89F
CORPUS CHRISTI PTSUNNY   81  68  64 E13       29.94F
DALLAS FTW     MOSUNNY   81  56  42 SE8       30.03S
DEL RIO        CLOUDY    80  60  50 E8        29.96F
EL PASO        MOSUNNY   71  52  50 CALM      30.00F
HOUSTON INT    MOSUNNY   81  56  42 E9        29.99F
LUBBOCK        MOSUNNY   74  49  41 SE9       30.06F
SAN ANGELO     CLOUDY    80  53  39 E7        30.01F
SAN ANTONIO    MOSUNNY   84  55  36 E10G16    29.98F
WACO           MOSUNNY   82  46  28 E8        30.01F
WICHITA FALLS  NOT AVBL
$$
...OTHER LOCATIONS IN NEW MEXICO...

CITY           SKY/WX    TMP DP  RH WIND       PRES   REMARKS
ALAMAGORDO     NOT AVBL
ALBUQUERQUE    MOSUNNY   65  44  46 W5        30.08F
CANNON AFB     MOSUNNY   72  49  43 S9        30.07F
CLOVIS         NOT AVBL
HOLLOMAN AFB   MOSUNNY   70  53  56 S5        30.03F
ROSWELL        CLOUDY    66  57  72 VRB3      30.05F
RUIDOSO        PTSUNNY   54  48  82 E6        30.18F
SANTA FE       CLOUDY    60  43  53 CALM      30.13F
TRUTH OR CONSE PTSUNNY   65  51  60 SE5       30.06F
TUCUMCARI      CLOUDY    71  52  50 SW17      30.05F
$$

USA.gov is the U.S. government's official web portal to all federal, state and local government web resources and services.